カタログに戻る

DELTA 4 R/B

運用中GTO
NORAD 27555·ROCKET BODY·🇺🇸 United States

打ち上げ Nov 20, 2002 から Cape Canaveral Space Force Station

Loading…

TLE

古いSource: Space-Track

元期: Sep 11, 2026, 18:55 UTC

1 27555U 02051B   26254.78876009  .00000047  00000-0  74319-3 0  9994
2 27555  14.1308 351.1532 7116816 306.7027   7.3793  2.35983855204944

AllMySatでDELTA 4 R/Bをリアルタイム追跡

Download on the App Store